Location: Kikino
(54.4440°N, 112.0940°W)
Time: 07:33:10
(UTC+00:00)

deb Explorer IX - Pass Details

Date: 25 May 2024
Orbit: 511 x 884 km, 38.7° (Epoch: 23 June)

Event Time Altitude Azimuth Distance (km) Brightness Sun altitude
Rises 05:04:31 0° 224° (SW) 3,070 ? -8.7°
Reaches altitude 10° 05:09:06 10° 187° (S) 2,034 ? -9.1°
Maximum altitude 05:10:03 11° 175° (S) 1,972 ? -9.1°
Enters shadow 05:10:33 10° 168° (SSE) 1,970 ? -9.2°
